When you browse on this site, cookies collect data to enhance your experience and personalize the content and advertising you see.
Visit our Privacy Policy to learn more. By continuing to use the site, you agree to this use of cookies and data.
  • In Lithuania
  • List of Countries
  • For 7 days
  • Water Temperature
  • Weather Map
  • Weather Widgets
  • user-avatar
    Login

    Hourly Weather Montreal

    Today, 29 May, Friday

    Time Temperature Precipitation Wind Pressure Humidity
    00:00 +23°C° 0 mm 5 mps 754 mmHg 83%
    01:00 +22°C° 0 mm 5 mps 754 mmHg 84%
    02:00 +22°C° 0 mm 5 mps 754 mmHg 86%
    03:00 +21°C° 0 mm 4 mps 754 mmHg 87%
    04:00 +21°C° 0 mm 4 mps 754 mmHg 88%
    05:00 +21°C° 0 mm 4 mps 754 mmHg 86%
    06:00 +22°C° 0 mm 4 mps 755 mmHg 84%
    07:00 +23°C° 0 mm 4 mps 755 mmHg 82%
    08:00 +26°C° 0.2 mm 5 mps 754 mmHg 76%
    09:00 +27°C° 0.2 mm 6 mps 754 mmHg 70%
    10:00 +28°C° 0.2 mm 7 mps 754 mmHg 64%
    11:00 +29°C° 0.1 mm 7 mps 753 mmHg 61%
    12:00 +30°C° 0.1 mm 6 mps 753 mmHg 58%
    13:00 +30°C° 0.1 mm 6 mps 753 mmHg 55%
    14:00 +30°C° 0.3 mm 5 mps 752 mmHg 58%
    15:00 +29°C° 0.3 mm 5 mps 751 mmHg 61%
    16:00 +29°C° 0.3 mm 4 mps 751 mmHg 64%
    17:00 +28°C° 1.8 mm 4 mps 750 mmHg 69%
    18:00 +26°C° 1.8 mm 5 mps 750 mmHg 74%
    19:00 +25°C° 1.8 mm 5 mps 750 mmHg 78%
    20:00 +23°C° 0.4 mm 5 mps 750 mmHg 80%
    21:00 +23°C° 0.4 mm 5 mps 749 mmHg 82%
    22:00 +22°C° 0.4 mm 5 mps 749 mmHg 83%
    23:00 +21°C° 0 mm 5 mps 749 mmHg 84%

    Tomorrow, 30 May, Saturday

    Time Temperature Precipitation Wind Pressure Humidity
    00:00 +21°C° 0 mm 6 mps 748 mmHg 84%
    01:00 +20°C° 0 mm 6 mps 748 mmHg 85%
    02:00 +18°C° 0 mm 7 mps 748 mmHg 83%
    03:00 +17°C° 0 mm 8 mps 748 mmHg 82%
    04:00 +17°C° 0 mm 9 mps 748 mmHg 80%
    05:00 +16°C° 0 mm 8 mps 750 mmHg 78%
    06:00 +16°C° 0 mm 8 mps 751 mmHg 76%
    07:00 +15°C° 0 mm 7 mps 752 mmHg 74%
    08:00 +16°C° 0 mm 6 mps 752 mmHg 72%
    09:00 +16°C° 0 mm 6 mps 753 mmHg 70%
    10:00 +16°C° 0 mm 5 mps 754 mmHg 67%
    11:00 +17°C° 0 mm 5 mps 753 mmHg 64%
    12:00 +19°C° 0 mm 4 mps 753 mmHg 61%
    13:00 +20°C° 0 mm 4 mps 752 mmHg 58%
    14:00 +20°C° 0.2 mm 4 mps 752 mmHg 61%
    15:00 +20°C° 0.2 mm 5 mps 752 mmHg 65%
    16:00 +20°C° 0.2 mm 5 mps 752 mmHg 68%
    17:00 +17°C° 0.4 mm 5 mps 752 mmHg 72%
    18:00 +16°C° 0.4 mm 6 mps 753 mmHg 76%
    19:00 +15°C° 0.4 mm 6 mps 753 mmHg 79%
    20:00 +14°C° 0 mm 6 mps 754 mmHg 79%
    21:00 +12°C° 0 mm 5 mps 755 mmHg 78%
    22:00 +10°C° 0 mm 5 mps 755 mmHg 78%
    23:00 +9°C° 0 mm 5 mps 756 mmHg 76%

    Day after tomorrow, 31 May, Sunday

    Time Temperature Precipitation Wind Pressure Humidity
    00:00 +10°C° 0 mm 4 mps 756 mmHg 74%
    01:00 +8°C° 0 mm 4 mps 757 mmHg 71%
    02:00 +7°C° 0 mm 4 mps 757 mmHg 73%
    03:00 +6°C° 0 mm 4 mps 757 mmHg 74%
    04:00 +7°C° 0 mm 3 mps 758 mmHg 76%
    05:00 +7°C° 0 mm 3 mps 759 mmHg 69%
    06:00 +8°C° 0 mm 3 mps 759 mmHg 62%
    07:00 +8°C° 0 mm 4 mps 760 mmHg 54%
    08:00 +10°C° 0 mm 4 mps 760 mmHg 50%
    09:00 +11°C° 0 mm 4 mps 760 mmHg 46%
    10:00 +13°C° 0 mm 4 mps 760 mmHg 42%
    11:00 +13°C° 0 mm 4 mps 760 mmHg 42%
    12:00 +14°C° 0 mm 5 mps 759 mmHg 43%
    13:00 +14°C° 0 mm 5 mps 759 mmHg 43%
    14:00 +14°C° 0 mm 5 mps 759 mmHg 45%
    15:00 +14°C° 0 mm 5 mps 758 mmHg 47%
    16:00 +15°C° 0 mm 5 mps 758 mmHg 49%
    17:00 +13°C° 0.3 mm 5 mps 758 mmHg 57%
    18:00 +12°C° 0.3 mm 5 mps 759 mmHg 65%
    19:00 +10°C° 0.3 mm 5 mps 759 mmHg 73%
    20:00 +9°C° 0.1 mm 5 mps 759 mmHg 76%
    21:00 +10°C° 0.1 mm 4 mps 759 mmHg 78%
    22:00 +8°C° 0.1 mm 4 mps 759 mmHg 81%
    23:00 +7°C° 0 mm 4 mps 759 mmHg 82%

    1 June, Monday

    Time Temperature Precipitation Wind Pressure Humidity
    00:00 +7°C° 0 mm 4 mps 759 mmHg 83%
    01:00 +7°C° 0 mm 3 mps 759 mmHg 84%
    02:00 +7°C° 0 mm 3 mps 760 mmHg 84%
    03:00 +5°C° 0 mm 3 mps 760 mmHg 84%
    04:00 +6°C° 0 mm 2 mps 760 mmHg 84%
    05:00 +7°C° 0 mm 2 mps 761 mmHg 78%
    06:00 +8°C° 0 mm 2 mps 761 mmHg 73%
    07:00 +9°C° 0 mm 2 mps 762 mmHg 68%
    08:00 +10°C° 0 mm 2 mps 762 mmHg 60%
    09:00 +12°C° 0 mm 3 mps 762 mmHg 53%
    10:00 +13°C° 0 mm 3 mps 762 mmHg 45%
    11:00 +13°C° 0 mm 3 mps 762 mmHg 43%
    12:00 +14°C° 0 mm 3 mps 761 mmHg 41%
    13:00 +16°C° 0 mm 3 mps 761 mmHg 39%
    14:00 +15°C° 0 mm 4 mps 761 mmHg 38%
    15:00 +17°C° 0 mm 4 mps 761 mmHg 38%
    16:00 +17°C° 0 mm 4 mps 761 mmHg 37%
    17:00 +15°C° 0 mm 4 mps 761 mmHg 44%
    18:00 +14°C° 0 mm 3 mps 761 mmHg 52%
    19:00 +13°C° 0 mm 3 mps 761 mmHg 59%
    20:00 +12°C° 0 mm 3 mps 761 mmHg 60%
    21:00 +12°C° 0 mm 3 mps 761 mmHg 61%
    22:00 +11°C° 0 mm 3 mps 761 mmHg 63%
    23:00 +10°C° 0.4 mm 3 mps 761 mmHg 70%

    2 June, Tuesday

    Time Temperature Precipitation Wind Pressure Humidity
    00:00 +10°C° 0.4 mm 2 mps 761 mmHg 77%
    01:00 +9°C° 0.4 mm 2 mps 761 mmHg 84%
    02:00 +9°C° 0 mm 2 mps 761 mmHg 85%
    03:00 +8°C° 0 mm 2 mps 761 mmHg 86%
    04:00 +8°C° 0 mm 2 mps 761 mmHg 87%
    05:00 +9°C° 0 mm 2 mps 761 mmHg 84%
    06:00 +10°C° 0 mm 2 mps 761 mmHg 81%
    07:00 +10°C° 0 mm 2 mps 761 mmHg 78%
    08:00 +13°C° 0 mm 2 mps 760 mmHg 74%
    09:00 +13°C° 0 mm 3 mps 760 mmHg 70%
    10:00 +16°C° 0 mm 3 mps 759 mmHg 66%
    11:00 +16°C° 0 mm 3 mps 759 mmHg 67%
    12:00 +16°C° 0 mm 3 mps 758 mmHg 67%
    13:00 +17°C° 0 mm 3 mps 758 mmHg 67%
    14:00 +18°C° 0 mm 3 mps 757 mmHg 64%
    15:00 +19°C° 0 mm 4 mps 757 mmHg 62%
    16:00 +20°C° 0 mm 4 mps 756 mmHg 59%
    17:00 +19°C° 0.4 mm 4 mps 756 mmHg 66%
    18:00 +17°C° 0.4 mm 5 mps 756 mmHg 73%
    19:00 +16°C° 0.4 mm 5 mps 756 mmHg 80%
    20:00 +15°C° 0.3 mm 5 mps 756 mmHg 82%
    21:00 +14°C° 0.3 mm 5 mps 756 mmHg 83%
    22:00 +14°C° 0.3 mm 6 mps 756 mmHg 85%
    23:00 +13°C° 0.3 mm 5 mps 755 mmHg 86%

    3 June, Wednesday

    Time Temperature Precipitation Wind Pressure Humidity
    00:00 +12°C° 0.3 mm 5 mps 754 mmHg 88%
    01:00 +12°C° 0.3 mm 4 mps 754 mmHg 89%
    02:00 +12°C° 0.2 mm 4 mps 753 mmHg 88%
    03:00 +12°C° 0.2 mm 4 mps 753 mmHg 87%
    04:00 +12°C° 0.2 mm 3 mps 752 mmHg 87%
    05:00 +12°C° 0.1 mm 4 mps 752 mmHg 88%
    06:00 +12°C° 0.1 mm 4 mps 752 mmHg 89%
    07:00 +12°C° 0.1 mm 4 mps 751 mmHg 90%
    08:00 +13°C° 0 mm 4 mps 751 mmHg 89%
    09:00 +14°C° 0 mm 4 mps 750 mmHg 88%
    10:00 +14°C° 0 mm 4 mps 750 mmHg 87%
    11:00 +15°C° 0 mm 4 mps 749 mmHg 86%
    12:00 +17°C° 0 mm 4 mps 749 mmHg 84%
    13:00 +18°C° 0 mm 4 mps 748 mmHg 82%
    14:00 +19°C° 0.3 mm 4 mps 747 mmHg 82%
    15:00 +19°C° 0.3 mm 4 mps 747 mmHg 82%
    16:00 +20°C° 0.3 mm 4 mps 746 mmHg 82%
    17:00 +19°C° 6.9 mm 5 mps 746 mmHg 86%
    18:00 +17°C° 6.9 mm 5 mps 745 mmHg 90%
    19:00 +17°C° 6.9 mm 5 mps 744 mmHg 95%
    20:00 +16°C° 1.4 mm 5 mps 744 mmHg 94%
    21:00 +16°C° 1.4 mm 5 mps 744 mmHg 94%
    22:00 +15°C° 1.4 mm 5 mps 744 mmHg 94%
    23:00 +15°C° 0 mm 5 mps 744 mmHg 92%
    Show more